Skip Page Navigation
NASA JPL Caltech
NASA Logo - Jet Propulsion Laboratory + View the NASA Portal
+ Center for Near-Earth Object Studies
JPL Home Earth Solar System Stars & Galaxies Technology
JPL Solar System Dynamics
BODIES ORBITS EPHEMERIDES TOOLS PHYSICAL DATA DISCOVERY FAQ SITE MAP
JPL Small-Body Database Browser
Search: [ help ]  
15883 (1997 CR29)
Classification: TransNeptunian Object          SPK-ID: 2015883
Ephemeris | Orbit Diagram | Orbital Elements | Physical Parameters | Discovery Circumstances ]

[ show orbit diagram ]
Orbital Elements at Epoch 2459000.5 (2020-May-31.0) TDB
Reference: JPL 5 (heliocentric ecliptic J2000)
 Element Value Uncertainty (1-sigma)   Units 
e .2107344780129594 0.00013023  
a 46.84883072181626 0.017439 au
q 36.97616683413681 0.0083071 au
i 19.198704149103 0.00021503 deg
node 127.2977129595284 0.00018651 deg
peri 299.8461479856864 0.063567 deg
M 73.59812620319227 0.076992 deg
tp 2435055.721856101809
(1954-Nov-09.22185610)
11.68 TDB
period 117124.1793303898
320.67
65.398
0.179
d
yr
n .003073660810757905 1.7162e-06 deg/d
Q 56.7214946094957 0.021114 au
  Orbit Determination Parameters
   # obs. used (total)      34  
   data-arc span      7711 days (21.11 yr)  
   first obs. used      1997-02-03  
   last obs. used      2018-03-16  
   planetary ephem.      DE431  
   SB-pert. ephem.      SB431-N16  
   condition code      4  
   norm. resid. RMS      .48884  
   source      ORB  
   producer      Otto Matic  
   solution date      2020-Feb-22 21:30:08  

Additional Information
 Earth MOID = 36.0323 au 
 Jupiter MOID = 32.1231 au 
 T_jup = 5.651 
[ show covariance matrix ]

Ephemeris | Orbit Diagram | Orbital Elements | Physical Parameters | Discovery Circumstances ]

Physical Parameter Table
Parameter Symbol Value Units Sigma Reference Notes
absolute magnitude H 7.1   n/a E2013S28  

15883 (1997 CR29)          Discovered 1997-Feb-03 by Trujillo, C., Chen, J., Jewitt, D. C. at Mauna Kea
Reference: 20000726/Numbers.arcLast Updated: 2004-04-19
Ephemeris | Orbit Diagram | Orbital Elements | Physical Parameters | Discovery Circumstances ]
ABOUT SSD CREDITS/AWARDS PRIVACY/COPYRIGHT GLOSSARY LINKS
FirstGov 2020-Aug-15 16:52 UT
(server date/time)  
NASA Home Page
Site Manager:   Ryan S. Park
Webmaster  Alan B. Chamberlin